Regional Weather Roundup
Issued by NWS

Home | Current Version | Previous Version | Text Only | Print | Product List | Glossary On
Versions: 1 2 3 4 5 6 7 8 9 10 11 12 13 14 15 16 17 18 19 20 21 22 23 24 25 26 27 28 29 30 31 32 33 34 35 36 37 38 39 40 41 42 43 44 45 46 47 48 49 50
000
ASUS43 KBIS 020910
RWRND

NORTH DAKOTA REGIONAL WEATHER ROUNDUP
NATIONAL WEATHER SERVICE BISMARCK ND
300 AM CST FRI DEC 02 2016

NOTE: "FAIR" INDICATES FEW OR NO CLOUDS BELOW 12,000 FEET WITH NO
SIGNIFICANT WEATHER AND/OR OBSTRUCTIONS TO VISIBILITY.


NDZ001>003-009>011-017-021000-
NORTHWEST NORTH DAKOTA

CITY           SKY/WX    TMP DP  RH WIND       PRES   REMARKS
WILLISTON      CLOUDY    28  23  81 SE3       30.12R
MINOT          CLOUDY    28  19  69 S5        30.14S
MINOT AFB      CLOUDY    26  20  77 SW6       30.14R WCI  19
$$

NDZ018>021-031>035-040>046-021000-
SOUTHWEST NORTH DAKOTA

CITY           SKY/WX    TMP DP  RH WIND       PRES   REMARKS
BISMARCK       CLOUDY    26  23  88 NE3       30.17R
DICKINSON      CLOUDY    24  21  88 S5        30.08R WCI  18
GARRISON         N/A     25  20  81 CALM      30.15R
HETTINGER ARPT CLOUDY    24  20  84 S3        30.11R
$$

NDZ004>008-012>016-024-026-027-054-021000-
NORTHEAST NORTH DAKOTA

CITY           SKY/WX    TMP DP  RH WIND       PRES   REMARKS
GRAND FORKS    CLOUDY    29  22  75 N13       30.17R WCI  19
GRND FRKS AFB  CLOUDY    28  22  80 N7        30.17R
DEVILS LAKE    CLOUDY    27  22  81 N10       30.16R WCI  17
$$

NDZ022-023-025-028>030-036>039-047>053-021000-
SOUTHEAST NORTH DAKOTA

CITY           SKY/WX    TMP DP  RH WIND       PRES   REMARKS
FARGO          CLOUDY    29  22  75 N12       30.16R WCI  19
JAMESTOWN      CLOUDY    27  22  81 N9        30.14R WCI  18
$$





USA.gov is the U.S. government's official web portal to all federal, state and local government web resources and services.